Crosby, ND

11:29 AM CST on November 22, 2019 (GMT -0600)
Crosby

Weather History for KD50 - October, 2019

Change the Weather History Date:

Wednesday, October 23, 2019

  Actual Average (KISN) Record (KISN)
Temperature  
Mean Temperature 32 °F -  
Max Temperature 44 °F 55 °F 79 °F (1901)
Min Temperature 21 °F 29 °F 7 °F (1981)
Degree Days  
Heating Degree Days 32    
Moisture  
Dew Point 22 °F    
Average Humidity 69    
Maximum Humidity 100    
Minimum Humidity 34    
Precipitation  
Precipitation 0.00 in - - ()
Sea Level Pressure  
Sea Level Pressure 30.10 in    
Wind  
Wind Speed 6 mph (NW)    
Max Wind Speed 16 mph    
Max Gust Speed 22 mph    
Visibility 7 miles    
Events Fog    
Averages and records for this station are not official NWS values.
T = Trace of Precipitation, MM = Missing Value Source: NWS Daily Summary

Daily Weather History Graph

Daily Weather History Graph

Search for Another Location

Airport or City:

Astronomy

Oct. 23, 2019 Rise Set
Actual Time 8:25 AM CDT 6:48 PM CDT
Civil Twilight 7:53 AM CDT 7:20 PM CDT
Nautical Twilight 7:16 AM CDT 7:57 PM CDT
Astronomical Twilight 6:39 AM CDT 8:34 PM CDT
Moon 2:09 AM CDT (10/23) 5:13 PM CDT (10/23)
Length of Visible Light 11h 27m
Length of Day
10h 22m
Waning Crescent, 26% of the Moon is Illuminated
Oct 23
Waning Crescent
Oct 27
New
Nov 4
First Quarter
Nov 12
Full
Nov 19
Last Quarter

Hourly Weather History & Observations

Time (CDT) Temp. Windchill Dew Point Humidity Pressure Visibility Wind Dir Wind Speed Gust Speed Precip Events Conditions
12:15 AM 26.6 °F - 23.0 °F 86% 29.84 in 0.8 mi Calm Calm - N/A   Overcast
12:35 AM 26.6 °F - 23.0 °F 86% 29.85 in 1.5 mi Calm Calm - N/A   Haze
12:55 AM 26.6 °F 22.6 °F 24.8 °F 93% 29.85 in 1.8 mi North 3.5 mph - N/A   Mostly Cloudy
1:15 AM 26.6 °F - 23.0 °F 86% 29.86 in 1.5 mi Calm Calm - N/A   Overcast
1:35 AM 26.6 °F 21.2 °F 23.0 °F 86% 29.87 in 1.5 mi North 4.6 mph - N/A   Mostly Cloudy
2:35 AM 24.8 °F 17.9 °F 23.0 °F 93% 29.89 in 1.2 mi North 5.8 mph - N/A   Clear
2:55 AM 26.6 °F 20.0 °F 23.0 °F 86% 29.90 in 2.5 mi NNE 5.8 mph - N/A   Partly Cloudy
3:15 AM 26.6 °F 21.2 °F 23.0 °F 86% 29.92 in 2.0 mi North 4.6 mph - N/A   Partly Cloudy
3:35 AM 26.6 °F 21.2 °F 23.0 °F 86% 29.93 in 2.0 mi North 4.6 mph - N/A   Clear
3:55 AM 26.6 °F 22.6 °F 23.0 °F 86% 29.94 in 1.8 mi North 3.5 mph - N/A   Clear
4:15 AM 24.8 °F - 23.0 °F 93% 29.95 in 1.5 mi Calm Calm - N/A   Clear
4:35 AM 24.8 °F - 23.0 °F 93% 29.96 in 1.8 mi Calm Calm - N/A   Clear
4:55 AM 24.8 °F 19.1 °F 21.2 °F 86% 29.97 in 1.8 mi North 4.6 mph - N/A   Clear
5:15 AM 23.0 °F 15.8 °F 21.2 °F 93% 29.97 in 0.8 mi NNW 5.8 mph - N/A   Overcast
5:35 AM 21.2 °F 13.6 °F 21.2 °F 100% 29.98 in 0.5 mi NW 5.8 mph - N/A Fog Light Freezing Fog
5:55 AM 21.2 °F 11.7 °F 21.2 °F 100% 30.00 in 0.5 mi NW 8.1 mph - N/A   Mostly Cloudy
6:35 AM 21.2 °F 11.7 °F 21.2 °F 100% 30.02 in 7.0 mi NW 8.1 mph - N/A   Clear
6:55 AM 21.2 °F 11.7 °F 21.2 °F 100% 30.03 in 10.0 mi NW 8.1 mph - N/A   Clear
7:15 AM 21.2 °F 12.6 °F 21.2 °F 100% 30.04 in 9.0 mi WNW 6.9 mph - N/A   Clear
7:35 AM 21.2 °F 11.7 °F 21.2 °F 100% 30.04 in 9.0 mi WNW 8.1 mph - N/A   Clear
7:55 AM 21.2 °F 10.9 °F 21.2 °F 100% 30.05 in 8.0 mi WNW 9.2 mph - N/A   Clear
8:15 AM 23.0 °F 13.1 °F 21.2 °F 93% 30.06 in 5.0 mi WNW 9.2 mph - N/A   Clear
8:35 AM 23.0 °F 12.4 °F 21.2 °F 93% 30.07 in 3.0 mi WNW 10.4 mph - N/A   Clear
8:55 AM 23.0 °F 12.4 °F 21.2 °F 93% 30.08 in 2.0 mi WNW 10.4 mph - N/A   Clear
9:15 AM 23.0 °F 12.4 °F 21.2 °F 93% 30.09 in 2.0 mi WNW 10.4 mph - N/A   Clear
9:35 AM 24.8 °F 14.6 °F 23.0 °F 93% 30.10 in 9.0 mi NW 10.4 mph - N/A   Clear
9:55 AM 26.6 °F 16.2 °F 24.8 °F 93% 30.11 in 10.0 mi NW 11.5 mph - N/A   Clear
10:15 AM 28.4 °F 19.7 °F 24.8 °F 86% 30.12 in 10.0 mi NW 9.2 mph - N/A   Clear
10:35 AM 30.2 °F 21.3 °F 24.8 °F 80% 30.13 in 10.0 mi NW 10.4 mph - N/A   Clear
10:55 AM 32.0 °F 23.0 °F 24.8 °F 75% 30.14 in 10.0 mi NW 11.5 mph - N/A   Scattered Clouds
11:35 AM 35.6 °F 27.5 °F 24.8 °F 65% 30.15 in 10.0 mi NW 11.5 mph - N/A   Clear
11:55 AM 35.6 °F 27.5 °F 24.8 °F 65% 30.15 in 10.0 mi NW 11.5 mph - N/A   Clear
12:15 PM 39.2 °F 31.6 °F 24.8 °F 56% 30.15 in 10.0 mi NW 12.7 mph - N/A   Clear
12:35 PM 39.2 °F 32.0 °F 23.0 °F 52% 30.15 in 10.0 mi NW 11.5 mph - N/A   Clear
12:55 PM 39.2 °F 32.5 °F 21.2 °F 49% 30.15 in 10.0 mi NW 10.4 mph 19.6 mph N/A   Clear
1:15 PM 41.0 °F 34.7 °F 21.2 °F 45% 30.16 in 10.0 mi NW 10.4 mph 18.4 mph N/A   Clear
1:35 PM 41.0 °F 34.7 °F 21.2 °F 45% 30.16 in 10.0 mi NNW 10.4 mph 20.7 mph N/A   Clear
1:55 PM 42.8 °F 37.0 °F 21.2 °F 42% 30.16 in 10.0 mi NW 10.4 mph - N/A   Clear
2:15 PM 42.8 °F 35.4 °F 19.4 °F 39% 30.15 in 10.0 mi NW 15.0 mph 21.9 mph N/A   Clear
2:35 PM 42.8 °F 36.6 °F 19.4 °F 39% 30.15 in 10.0 mi WNW 11.5 mph 20.7 mph N/A   Clear
2:55 PM 42.8 °F 35.4 °F 19.4 °F 39% 30.15 in 10.0 mi NNW 15.0 mph - N/A   Clear
3:15 PM 44.6 °F 37.4 °F 19.4 °F 37% 30.15 in 10.0 mi NW 16.1 mph - N/A   Partly Cloudy
3:35 PM 44.6 °F 37.8 °F 19.4 °F 37% 30.16 in 10.0 mi WNW 15.0 mph - N/A   Clear
3:55 PM 44.6 °F - 19.4 °F 37% 30.16 in 10.0 mi North - - N/A   Clear
4:15 PM 44.6 °F 37.8 °F 19.4 °F 37% 30.16 in 10.0 mi NW 15.0 mph 21.9 mph N/A   Partly Cloudy
4:35 PM 44.6 °F 38.8 °F 17.6 °F 34% 30.17 in 10.0 mi WNW 11.5 mph 20.7 mph N/A   Clear
4:55 PM 44.6 °F 38.4 °F 17.6 °F 34% 30.18 in 10.0 mi NNW 12.7 mph 21.9 mph N/A   Clear
5:15 PM 44.6 °F 37.8 °F 17.6 °F 34% 30.18 in 10.0 mi WNW 15.0 mph - N/A   Clear
5:35 PM 42.8 °F 36.6 °F 17.6 °F 36% 30.19 in 10.0 mi NW 11.5 mph 17.3 mph N/A   Clear
5:55 PM 39.2 °F 34.2 °F 17.6 °F 42% 30.19 in 9.0 mi NW 6.9 mph - N/A   Scattered Clouds
6:15 PM 39.2 °F 34.2 °F 19.4 °F 45% 30.19 in 10.0 mi WNW 6.9 mph - N/A   Mostly Cloudy
6:35 PM 37.4 °F 32.8 °F 19.4 °F 48% 30.20 in 7.0 mi NW 5.8 mph - N/A   Overcast
6:55 PM 37.4 °F 33.8 °F 19.4 °F 48% 30.20 in 5.0 mi WNW 4.6 mph - N/A   Haze
7:15 PM 37.4 °F 33.8 °F 21.2 °F 52% 30.21 in 6.0 mi WNW 4.6 mph - N/A   Haze
7:35 PM 35.6 °F 29.2 °F 21.2 °F 56% 30.21 in 9.0 mi West 8.1 mph - N/A   Overcast
7:55 PM 37.4 °F 31.4 °F 21.2 °F 52% 30.22 in 10.0 mi West 8.1 mph - N/A   Overcast
8:15 PM 37.4 °F 30.3 °F 23.0 °F 56% 30.23 in 10.0 mi West 10.4 mph - N/A   Overcast
8:35 PM 37.4 °F 31.4 °F 23.0 °F 56% 30.23 in 10.0 mi WNW 8.1 mph - N/A   Overcast
8:55 PM 35.6 °F 28.6 °F 24.8 °F 65% 30.23 in 10.0 mi WNW 9.2 mph - N/A   Overcast
9:15 PM 35.6 °F 29.2 °F 24.8 °F 65% 30.24 in 10.0 mi WNW 8.1 mph - N/A   Overcast
9:35 PM 35.6 °F 29.2 °F 26.6 °F 70% 30.24 in 10.0 mi WNW 8.1 mph - N/A   Overcast
10:15 PM 35.6 °F 30.7 °F 26.6 °F 70% 30.25 in 10.0 mi WNW 5.8 mph - N/A   Overcast
10:35 PM 33.8 °F 27.7 °F 26.6 °F 75% 30.25 in 10.0 mi WNW 6.9 mph - N/A   Overcast
10:55 PM 35.6 °F 29.9 °F 26.6 °F 70% 30.25 in 10.0 mi WNW 6.9 mph - N/A   Overcast
11:15 PM 35.6 °F 29.9 °F 26.6 °F 70% 30.26 in 10.0 mi WNW 6.9 mph - N/A   Overcast
11:35 PM 33.8 °F 27.7 °F 26.6 °F 75% 30.25 in 10.0 mi NW 6.9 mph - N/A   Overcast
11:55 PM 33.8 °F 27.7 °F 26.6 °F 75% 30.26 in 10.0 mi WNW 6.9 mph - N/A   Overcast